Weather History for Denver Centennial, CO

Change the Weather History Date:

Tuesday, May 14, 2013

  Actual Average Record
Temperature  
Mean Temperature 71 °F -  
Max Temperature 84 °F 67 °F 84 °F (2013)
Min Temperature 58 °F 40 °F 32 °F (2000)
Cooling Degree Days 6    
Month to date cooling degree days 8  
Growing Degree Days 20 (Base 50)    
Moisture  
Dew Point 37 °F    
Average Humidity 32    
Maximum Humidity 47    
Minimum Humidity 17    
Precipitation  
Precipitation T in - - ()
Month to date precipitation 1.56  
Year to date precipitation 4.52  
Sea Level Pressure  
Sea Level Pressure 29.86 in    
Wind  
Wind Speed 11 mph (WSW)    
Max Wind Speed 25 mph    
Max Gust Speed 43 mph    
Visibility 10 miles    
Events Rain    
Averages and records for this station are not official NWS values.
T = Trace of Precipitation, MM = Missing Value Source: NWS Daily Summary

Daily Weather History Graph

Daily Weather History Graph

Search for Another Location

Airport:

Trip Planner

Search our weather history database for the weather conditions in past years. The results will help you decide how hot, cold, wet, or windy it might be!

Date:

Astronomy

May. 14, 2013 Rise Set
Actual Time 5:45 AM MDT 8:06 PM MDT
Civil Twilight 5:15 AM MDT 8:36 PM MDT
Nautical Twilight 4:38 AM MDT 9:14 PM MDT
Astronomical Twilight 3:57 AM MDT 9:55 PM MDT
Moon 9:27 AM MDT (5/14) 11:55 PM MDT (5/14)
Length of Visible Light 15h 20m
Length of Day
14h 20m
Waxing Crescent, 19% of the Moon is Illuminated
May 14
Waxing Crescent
May 17
First Quarter
May 24
Full
May 31
Last Quarter
Jun 8
New

Hourly Weather History & Observations

Time (MDT) Temp. Dew Point Humidity Pressure Visibility Wind Dir Wind Speed Gust Speed Precip Events Conditions
12:53 AM 64.9 °F 36.0 °F 34% 29.88 in 10.0 mi SW 10.4 mph - N/A   Scattered Clouds
1:53 AM 64.0 °F 35.1 °F 34% 29.87 in 10.0 mi SW 12.7 mph - N/A   Clear
2:53 AM 63.0 °F 35.1 °F 35% 29.87 in 10.0 mi WSW 10.4 mph - N/A   Partly Cloudy
3:53 AM 62.1 °F 35.1 °F 37% 29.87 in 10.0 mi WSW 9.2 mph - N/A   Clear
4:53 AM 57.9 °F 37.0 °F 46% 29.89 in 10.0 mi Calm Calm - N/A   Scattered Clouds
5:53 AM 62.1 °F 34.0 °F 35% 29.88 in 10.0 mi WSW 15.0 mph - N/A   Scattered Clouds
6:53 AM 63.0 °F 36.0 °F 37% 29.89 in 10.0 mi SW 9.2 mph - N/A   Mostly Cloudy
7:53 AM 66.9 °F 39.0 °F 36% 29.90 in 10.0 mi WSW 6.9 mph - N/A   Mostly Cloudy
8:53 AM 72.0 °F 37.9 °F 29% 29.90 in 10.0 mi SW 5.8 mph - N/A   Scattered Clouds
9:53 AM 75.9 °F 35.1 °F 23% 29.87 in 10.0 mi Calm Calm - N/A   Scattered Clouds
10:53 AM 80.1 °F 34.0 °F 19% 29.87 in 10.0 mi NNW 3.5 mph - N/A   Scattered Clouds
11:53 AM 82.0 °F 33.1 °F 17% 29.84 in 10.0 mi North 8.1 mph - N/A   Scattered Clouds
12:53 PM 79.0 °F 32.0 °F 18% 29.82 in 10.0 mi Variable 6.9 mph 17.3 mph N/A   Mostly Cloudy
1:53 PM 82.9 °F 33.1 °F 17% 29.79 in 10.0 mi East 9.2 mph 18.4 mph N/A   Mostly Cloudy
2:40 PM 75.2 °F 35.6 °F 24% 30.02 in 10.0 mi WNW 23.0 mph 32.2 mph N/A   Mostly Cloudy
2:53 PM 73.9 °F 37.9 °F 27% 29.83 in 10.0 mi NW 23.0 mph 34.5 mph 0.00 in Rain Light Rain
3:53 PM 71.1 °F 39.0 °F 31% 29.87 in 10.0 mi WSW 23.0 mph 29.9 mph 0.00 in Rain Light Rain
4:53 PM 69.1 °F 42.1 °F 38% 29.87 in 10.0 mi SSW 23.0 mph 31.1 mph 0.00 in   Overcast
5:53 PM 68.0 °F 42.1 °F 39% 29.86 in 10.0 mi SSW 23.0 mph 31.1 mph N/A   Mostly Cloudy
6:53 PM 70.0 °F 37.9 °F 31% 29.83 in 10.0 mi WSW 12.7 mph - N/A   Overcast
7:53 PM 66.9 °F 39.9 °F 37% 29.83 in 10.0 mi SW 17.3 mph - N/A   Overcast
8:53 PM 64.9 °F 39.9 °F 40% 29.84 in 10.0 mi NW 6.9 mph - N/A   Mostly Cloudy
9:53 PM 64.9 °F 39.0 °F 39% 29.83 in 10.0 mi WNW 4.6 mph - N/A   Mostly Cloudy
10:53 PM 62.1 °F 41.0 °F 46% 29.82 in 10.0 mi Calm Calm - N/A   Mostly Cloudy
11:53 PM 63.0 °F 39.9 °F 43% 29.81 in 10.0 mi South 13.8 mph - N/A   Mostly Cloudy